Binghamton, NY

2:37 AM EST on December 16, 2019 (GMT -0500)
Binghamton Regional-Link

Weather History for KBGM - November, 2019

Change the Weather History Date:

Monday, November 11, 2019

  Actual Average Record
Temperature  
Mean Temperature 34 °F 40 °F  
Max Temperature 41 °F 47 °F 68 °F (2012)
Min Temperature 28 °F 33 °F 13 °F (2017)
Degree Days  
Heating Degree Days 30 25  
Month to date heating degree days 331 257  
Since 1 July heating degree days 943 1029  
Cooling Degree Days 0 0  
Month to date cooling degree days 0 0  
Year to date cooling degree days 389 381  
Moisture  
Dew Point 33 °F    
Average Humidity 93    
Maximum Humidity 100    
Minimum Humidity 70    
Precipitation  
Precipitation 0.00 in 0.10 in 1.17 in (1991)
Month to date precipitation 0.52 1.20  
Year to date precipitation 39.03 34.37  
Snow  
Snow 0.00 in 0.10 in 5.10 in (1986)
Month to date snowfall 2.0 1.2  
Since 1 July snowfall 2.0 2.2  
Since 1 September snowfall 2.0 2.2  
Snow Depth 0.00 in    
Sea Level Pressure  
Sea Level Pressure 29.99 in    
Wind  
Wind Speed 5 mph ()    
Max Wind Speed 12 mph    
Max Gust Speed 14 mph    
Visibility 4.4 miles    
Events Fog    
T = Trace of Precipitation, MM = Missing Value Source: Averaged Metar Reports

Daily Weather History Graph

Daily Weather History Graph

Search for Another Location

Airport or City:

Astronomy

Nov. 11, 2019 Rise Set
Actual Time 6:49 AM EST 4:46 PM EST
Civil Twilight 6:19 AM EST 5:16 PM EST
Nautical Twilight 5:45 AM EST 5:49 PM EST
Astronomical Twilight 5:12 AM EST 6:22 PM EST
Moon 4:42 PM EST (11/11) 5:35 AM EST (11/11)
Length of Visible Light 10h 56m
Length of Day
9h 57m
Waxing Gibbous, 99% of the Moon is Illuminated
Nov 11
Waxing Gibbous
Nov 12
Full
Nov 19
Last Quarter
Nov 26
New
Dec 4
First Quarter

Hourly Weather History & Observations

Time (EST) Temp. Windchill Dew Point Humidity Pressure Visibility Wind Dir Wind Speed Gust Speed Precip Events Conditions
12:53 AM 39.9 °F - 30.9 °F 70% 30.02 in 10.0 mi Calm Calm - N/A   Overcast
1:53 AM 39.0 °F 34.8 °F 34.0 °F 82% 30.03 in 10.0 mi North 5.8 mph - N/A   Overcast
2:53 AM 39.0 °F 34.8 °F 34.0 °F 82% 30.03 in 10.0 mi North 5.8 mph - N/A   Overcast
3:53 AM 37.9 °F 33.5 °F 35.1 °F 89% 30.04 in 7.0 mi NNW 5.8 mph - N/A   Overcast
4:23 AM 37.9 °F 35.5 °F 36.0 °F 93% 30.01 in 6.0 mi North 3.5 mph - N/A   Overcast
4:53 AM 37.0 °F 32.4 °F 35.1 °F 93% 30.05 in 6.0 mi North 5.8 mph - N/A   Overcast
5:02 AM 37.0 °F 33.3 °F 35.1 °F 93% 30.03 in 6.0 mi NNW 4.6 mph - N/A   Overcast
5:53 AM 37.0 °F 34.5 °F 34.0 °F 89% 30.07 in 6.0 mi NNW 3.5 mph - N/A   Overcast
6:53 AM 37.0 °F 34.5 °F 35.1 °F 93% 30.08 in 3.0 mi NW 3.5 mph - N/A   Overcast
7:13 AM 37.0 °F 34.5 °F 35.1 °F 93% 30.05 in 3.0 mi NNW 3.5 mph - N/A   Overcast
7:31 AM 37.0 °F 32.4 °F 35.1 °F 93% 30.05 in 2.0 mi North 5.8 mph - N/A   Overcast
7:39 AM 36.0 °F 31.1 °F 35.1 °F 97% 30.06 in 1.5 mi North 5.8 mph - N/A   Overcast
7:53 AM 37.0 °F 31.0 °F 35.1 °F 93% 30.09 in 1.2 mi North 8.1 mph - N/A   Overcast
8:49 AM 37.4 °F 32.8 °F 35.6 °F 93% 30.05 in 2.5 mi NE 5.8 mph - N/A   Overcast
8:53 AM 37.0 °F 32.4 °F 35.1 °F 93% 30.09 in 3.0 mi NE 5.8 mph - N/A   Overcast
9:05 AM 37.0 °F 31.6 °F 35.1 °F 93% 30.06 in 2.0 mi NNE 6.9 mph - N/A   Overcast
9:45 AM 37.0 °F 34.5 °F 35.1 °F 93% 30.06 in 2.0 mi NE 3.5 mph - N/A   Overcast
9:53 AM 37.0 °F 33.3 °F 35.1 °F 93% 30.10 in 2.0 mi East 4.6 mph - N/A   Overcast
10:01 AM 37.0 °F 34.5 °F 35.1 °F 93% 30.06 in 2.0 mi ENE 3.5 mph - N/A   Overcast
10:20 AM 37.0 °F 34.5 °F 35.1 °F 93% 30.07 in 2.0 mi Variable 3.5 mph - N/A   Overcast
10:42 AM 37.0 °F 34.5 °F 35.1 °F 93% 30.05 in 4.0 mi NE 3.5 mph - N/A   Overcast
10:53 AM 37.9 °F 35.5 °F 35.1 °F 89% 30.08 in 4.0 mi East 3.5 mph - N/A   Overcast
11:53 AM 37.0 °F 31.0 °F 34.0 °F 89% 30.06 in 7.0 mi North 8.1 mph - N/A   Overcast
12:04 PM 36.0 °F 31.1 °F 34.0 °F 93% 30.02 in 8.0 mi NNW 5.8 mph - N/A   Overcast
12:53 PM 35.1 °F 29.3 °F 33.1 °F 92% 30.04 in 8.0 mi North 6.9 mph - N/A   Overcast
1:53 PM 34.0 °F 26.6 °F 32.0 °F 92% 30.01 in 10.0 mi North 9.2 mph - N/A   Overcast
2:53 PM 33.1 °F 26.1 °F 32.0 °F 96% 30.00 in 10.0 mi NNE 8.1 mph - N/A   Overcast
3:53 PM 33.1 °F 25.5 °F 30.9 °F 92% 30.00 in 8.0 mi North 9.2 mph - N/A   Overcast
4:27 PM 32.0 °F 25.6 °F 30.9 °F 96% 29.93 in 2.0 mi North 6.9 mph - N/A   Overcast
4:53 PM 32.0 °F 24.8 °F 30.9 °F 96% 29.96 in 2.0 mi NNE 8.1 mph - N/A   Overcast
5:53 PM 32.0 °F 25.6 °F 30.0 °F 92% 29.93 in 7.0 mi NNE 6.9 mph - N/A   Overcast
6:53 PM 30.9 °F 23.5 °F 30.0 °F 96% 29.94 in 3.0 mi North 8.1 mph - N/A   Overcast
7:53 PM 30.0 °F 23.2 °F 28.9 °F 96% 29.91 in 7.0 mi North 6.9 mph - N/A   Overcast
8:28 PM 30.0 °F 24.1 °F 28.9 °F 96% 29.85 in 2.5 mi NNE 5.8 mph - N/A   Overcast
8:53 PM 30.0 °F 24.1 °F 28.9 °F 96% 29.89 in 2.5 mi North 5.8 mph - N/A   Overcast
9:53 PM 30.0 °F 24.1 °F 28.9 °F 96% 29.86 in 2.0 mi North 5.8 mph - N/A   Overcast
10:44 PM 28.9 °F 25.2 °F 28.9 °F 100% 29.76 in 0.2 mi NNE 3.5 mph - N/A Fog Light Freezing Fog
10:53 PM 28.9 °F 23.9 °F 28.9 °F 100% 29.81 in 0.5 mi NNW 4.6 mph - N/A Fog Light Freezing Fog
11:15 PM 28.9 °F 22.8 °F 28.0 °F 96% 29.75 in 0.2 mi North 5.8 mph - N/A Fog Light Freezing Fog
11:53 PM 28.9 °F 22.8 °F 28.0 °F 96% 29.79 in 0.2 mi NNW 5.8 mph - N/A Fog Light Freezing Fog